Simultaneous Nadir Overpasses (SNOs) Predictions

Prediction of SNOs between LANDSAT-8 and NOAA-19 Satellite Orbit:

Table of predicted SNOs for the next 14.0 days since TLE Epoch: 1/19/2018
Index Date (LANDSAT-8) Time (LANDSAT-8) Lat,Lon (LANDSAT-8) SZA (LANDSAT-8 ) Date (NOAA-19) Time (NOAA-19) Lat,Lon (NOAA-19) SZA (NOAA-19 ) Distance(km) Time Diff (sec)
1 01/20/2018 16:30:54 -77.13, 124.21 82.77 01/20/2018 16:29:59 -77.11, 124.16 82.80 2.31 55
2 01/20/2018 17:20:21 77.07, -68.36 97.17 01/20/2018 17:20:55 77.08, -68.46 97.18 2.87 34
3 01/22/2018 22:04:36 77.13,-139.22 96.73 01/22/2018 22:03:36 77.13,-139.29 96.72 1.87 60
4 01/22/2018 22:54:04 -77.10, 28.29 83.32 01/22/2018 22:54:40 -77.09, 28.14 83.33 3.90 36
5 01/25/2018 03:38:19 -77.15, -42.56 83.79 01/25/2018 03:37:21 -77.13, -42.65 83.82 2.94 58
6 01/25/2018 04:27:46 77.09, 124.85 96.14 01/25/2018 04:28:16 77.09, 124.81 96.14 0.93 30
7 01/27/2018 09:12:01 77.14, 53.97 95.64 01/27/2018 09:10:57 77.15, 53.96 95.63 0.58 64
8 01/27/2018 10:01:29 -77.11,-138.50 84.41 01/27/2018 10:02:01 -77.09,-138.53 84.43 3.20 32
9 01/29/2018 14:45:44 -77.16, 150.62 84.94 01/29/2018 14:44:42 -77.14, 150.64 84.97 2.87 62
10 01/29/2018 15:35:11 77.10, -41.98 94.98 01/29/2018 15:35:37 77.11, -41.96 95.00 1.32 26
11 01/31/2018 20:19:26 77.14,-112.88 94.42 01/31/2018 20:18:18 77.17,-112.83 94.44 3.12 68




NCC Satellite Simultaneous Nadir Overpasses (SNOs) Prediction Service
